GFSSGP_500_spd_096.txt.gz
Wind_Speed
2 5 7 7 5 4 3 11 12 10 7 7 7 7 9 9 13 15 13 14 12 13 12 13 13 13 12 11 10 9 6 6 6 8 8 8 7 7 7 8 9 9 9 10 9 10 10 11 12
3 5 7 6 2 2 2 10 11 10 7 8 8 10 8 11 14 15 14 12 10 12 12 13 12 13 13 12 12 10 8 6 5 6 7 7 6 6 6 7 8 8 7 8 8 8 8 10 11
4 5 4 6 5 4 8 18 15 11 8 8 8 10 9 9 11 12 13 11 10 11 11 12 12 13 12 12 12 12 11 8 6 6 7 7 6 6 7 6 7 7 7 7 5 5 7 9 11
5 2 3 6 8 10 4 12 14 10 6 7 9 9 9 8 10 12 11 11 11 10 11 11 12 12 12 11 12 12 12 10 9 8 8 7 7 6 6 6 7 7 7 8 7 1 9 14 12
5 3 1 6 9 14 15 16 14 13 9 7 7 8 10 10 9 10 10 10 10 9 10 10 11 11 11 10 9 11 11 10 12 13 11 10 7 7 8 8 8 8 7 9 12 16 12 11 10
4 12 9 7 8 15 22 16 17 13 10 7 8 7 9 10 10 9 10 9 8 8 9 9 9 10 9 8 8 10 10 9 10 11 12 11 11 9 10 9 11 10 9 10 12 11 9 8 7
4 8 13 2 4 7 19 17 21 18 13 7 7 8 8 11 9 11 9 9 9 9 9 9 8 8 8 8 8 9 9 8 7 7 11 11 10 9 10 9 11 12 11 10 9 6 4 7 8
2 3 3 14 10 14 20 25 25 24 19 11 8 8 9 10 10 11 10 8 8 9 8 8 7 9 8 7 6 7 7 7 7 5 7 7 9 9 10 10 12 13 10 9 8 8 8 6 12
3 12 4 8 5 4 16 24 21 20 17 13 11 10 7 9 10 11 11 10 8 8 8 7 8 8 8 6 6 6 5 6 6 6 5 6 8 8 9 11 11 10 10 9 12 15 19 17 11
9 3 3 3 2 1 16 25 21 15 18 15 11 9 8 6 7 9 9 9 7 7 7 6 8 10 8 7 7 9 9 7 6 6 8 8 9 8 9 10 10 9 10 12 16 15 19 11 11
8 1 6 4 4 4 7 8 7 24 23 14 9 10 9 7 6 6 7 8 8 5 6 6 9 9 6 9 10 9 10 8 8 6 7 8 9 10 9 8 9 10 9 12 12 15 16 15 12
15 13 5 4 4 6 7 5 14 19 21 17 10 9 9 9 8 8 8 6 7 5 5 5 8 11 7 8 7 10 11 10 13 11 8 7 8 10 14 10 9 10 4 12 15 15 18 16 13
17 9 8 3 4 7 6 5 3 11 24 18 11 9 8 9 8 7 7 6 6 5 5 4 6 7 11 10 10 10 11 13 13 13 13 11 11 13 12 12 9 11 11 14 16 15 18 16 12
13 10 8 5 3 5 3 7 5 9 8 12 10 9 9 10 9 8 8 7 6 6 5 4 5 6 9 9 10 11 10 11 12 16 16 14 13 13 11 11 11 12 12 13 16 18 17 13 12
18 16 13 10 9 7 1 3 10 7 16 13 10 9 9 10 10 9 9 8 7 6 6 4 4 6 7 9 9 8 7 9 11 15 18 14 11 11 10 9 11 14 13 14 15 15 14 13 13
16 16 13 12 12 12 11 8 9 11 13 18 12 11 11 11 11 10 10 9 9 7 7 5 4 6 7 7 8 4 7 5 16 14 15 15 12 11 13 10 12 12 14 15 15 17 15 15 15
22 18 14 12 12 15 15 20 18 13 12 18 16 15 15 12 11 11 11 11 10 9 8 7 6 5 6 8 8 5 8 12 13 5 18 13 9 12 11 10 11 12 14 14 17 19 17 15 15
21 18 16 16 18 22 15 10 11 12 12 18 18 18 18 15 14 13 13 13 11 9 9 9 6 5 5 7 8 6 8 9 8 8 14 12 9 11 12 12 11 13 13 12 15 16 16 15 15
23 20 16 23 22 20 18 18 12 16 12 14 23 22 18 17 15 14 13 14 13 11 11 11 8 7 6 7 7 6 5 5 11 10 12 11 10 10 11 12 13 12 13 12 12 12 14 14 13
29 19 30 29 15 22 22 16 19 12 11 16 20 21 19 19 17 15 13 14 15 13 11 12 9 9 8 8 8 6 4 4 7 8 8 11 11 9 13 13 11 12 13 12 13 12 12 13 13
33 28 28 27 23 22 21 11 2 5 16 18 21 18 26 23 20 17 15 16 16 15 14 13 9 8 9 8 8 6 5 2 5 8 9 10 10 11 11 13 13 11 12 12 12 12 11 11 12
32 29 17 34 16 20 11 12 18 16 14 17 22 18 24 24 27 20 19 17 17 18 15 13 11 9 10 8 8 9 9 5 5 7 7 6 7 9 9 12 14 12 11 12 12 11 11 9 11
31 31 22 28 32 16 19 22 20 23 21 18 10 5 17 23 23 20 19 18 18 17 17 16 14 12 11 11 8 11 10 5 5 5 14 4 5 7 7 9 11 11 10 11 11 12 11 10 9
30 38 21 18 19 19 20 13 29 24 24 12 18 19 16 22 28 21 19 18 17 16 16 16 16 15 12 12 11 10 6 5 8 9 5 3 3 4 5 6 8 9 10 8 9 9 11 10 12
39 31 29 24 21 23 17 19 31 28 24 14 19 14 18 19 24 22 17 16 16 16 16 17 18 18 15 12 12 12 11 10 8 7 6 3 1 2 3 2 3 6 6 7 6 8 8 9 10
38 27 29 32 25 19 20 29 36 41 15 21 19 19 19 19 22 18 19 18 21 21 18 19 21 21 20 16 13 14 13 12 10 8 4 4 5 3 4 4 3 3 3 5 5 5 6 6 8
31 37 26 14 16 16 31 37 45 43 42 37 32 26 32 20 19 25 22 22 23 18 15 20 22 23 22 21 17 15 16 16 13 9 10 11 8 4 5 4 4 5 4 3 5 4 5 7 8
30 32 36 33 29 24 30 38 42 41 46 47 40 26 27 19 29 31 25 24 25 25 20 22 22 21 23 23 23 20 18 17 16 14 13 15 11 8 5 3 3 2 5 5 6 6 7 7 8
38 35 43 28 19 25 27 33 40 45 43 42 37 36 31 30 27 26 20 27 34 27 26 25 24 20 21 23 23 22 21 20 18 16 15 17 14 10 7 7 3 2 5 4 5 6 7 9 10
46 35 37 36 36 25 30 45 34 45 45 37 37 33 34 33 35 31 27 22 22 27 32 26 21 23 22 21 21 22 23 22 20 20 19 18 19 13 11 9 6 5 5 4 6 7 8 10 10

GFSSGP_500_spd_102.txt.gz
Wind_Speed
4 4 3 2 7 7 22 12 6 13 16 17 16 13 12 13 16 15 15 14 15 17 14 15 15 15 13 11 9 6 5 5 6 8 10 12 12 13 13 11 12 12 13 13 14 15 17 17 16
4 4 4 3 8 25 18 13 12 10 14 15 18 16 14 15 13 16 14 11 14 18 15 16 16 16 14 12 11 9 7 6 6 7 8 10 12 11 11 10 11 12 12 12 13 13 15 16 14
5 4 5 3 2 4 15 10 14 10 10 12 16 12 16 15 11 14 13 10 14 17 16 15 16 15 14 13 12 11 9 8 8 8 9 10 11 11 10 10 10 10 11 10 9 13 14 15 15
3 4 6 4 7 1 23 4 14 10 10 11 15 12 10 13 13 13 11 11 14 16 15 15 15 14 13 13 13 12 13 11 11 11 11 10 10 10 10 10 11 12 10 10 10 13 14 14 16
5 7 11 8 10 10 8 3 15 13 10 10 13 11 11 10 13 12 11 12 14 14 14 14 14 13 13 13 13 13 14 14 14 12 10 9 10 11 11 10 12 14 15 16 18 15 14 13 15
4 9 4 4 6 9 10 12 9 12 12 10 13 11 10 12 13 9 11 12 11 13 12 12 13 13 13 13 12 12 13 14 14 13 11 11 11 11 10 10 12 13 13 12 14 14 15 15 14
13 7 8 8 8 13 10 14 14 12 15 13 15 11 8 8 12 10 11 12 11 11 11 11 12 12 12 12 11 12 11 11 13 13 12 12 11 10 9 10 11 10 10 9 9 12 15 15 15
4 7 6 12 13 19 14 18 11 17 12 12 16 13 11 7 10 11 11 13 11 10 11 12 12 12 13 12 11 10 10 10 9 9 11 12 12 10 11 10 9 8 8 8 8 10 13 16 15
7 11 11 13 15 6 10 16 29 8 10 9 15 14 12 10 10 11 11 12 11 12 12 13 12 12 13 12 11 10 9 10 9 8 10 12 11 10 11 9 9 7 6 6 13 13 12 16 17
12 15 12 12 15 15 9 12 13 22 10 14 14 13 12 14 10 11 12 11 11 12 12 10 14 14 15 13 12 11 10 9 11 10 10 12 12 12 10 8 9 12 13 17 20 23 16 19 18
12 7 10 11 4 13 15 13 14 14 17 11 19 17 14 11 9 10 11 13 10 13 11 12 11 13 16 14 13 11 11 11 8 10 11 13 11 11 9 8 9 11 15 19 20 21 18 19 18
12 5 7 8 5 9 13 15 15 13 15 12 15 18 18 17 11 9 10 11 10 13 12 13 11 11 16 13 12 14 12 12 9 8 10 12 13 10 10 9 8 13 14 17 20 20 19 18 17
13 9 15 7 9 10 11 11 8 9 19 14 13 15 14 13 10 9 10 11 11 12 13 13 10 10 16 15 14 14 14 14 11 10 11 15 14 11 12 12 13 21 18 17 21 20 19 16 17
16 17 6 5 9 11 9 8 13 17 15 10 9 14 15 14 9 9 10 12 12 11 11 10 9 9 17 16 14 14 15 14 12 11 12 14 13 13 15 17 19 20 19 19 21 19 18 19 20
17 16 13 2 6 4 6 9 4 16 17 13 10 10 14 13 10 7 9 12 13 11 8 10 10 9 15 12 14 12 13 14 10 11 9 11 12 12 18 20 20 21 23 21 19 19 17 20 25
16 12 15 11 10 4 5 3 5 29 22 15 9 10 11 12 11 8 7 11 13 13 7 9 11 11 12 13 12 9 14 13 13 11 9 13 16 14 18 18 20 20 20 19 17 18 19 21 22
15 12 15 11 12 5 7 6 3 24 21 13 9 9 10 11 9 9 5 9 9 12 8 9 10 12 10 15 13 13 15 11 11 11 10 12 14 15 19 22 21 21 20 19 18 18 20 22 21
15 17 16 14 11 14 10 5 3 0 9 8 11 8 8 10 8 11 8 6 8 7 11 8 11 15 10 13 13 13 14 12 12 12 12 10 14 15 16 22 24 24 22 20 20 19 20 22 20
21 23 24 20 16 11 14 5 2 12 13 6 9 10 8 8 7 8 10 7 7 5 8 8 8 12 11 11 13 14 15 12 13 13 12 10 11 13 16 20 21 21 22 21 20 22 21 21 20
26 29 28 25 18 16 7 10 9 8 6 7 9 11 9 8 7 4 6 7 7 6 5 7 6 9 11 9 11 14 13 13 14 12 11 10 9 11 13 16 19 19 18 21 20 21 19 18 19
31 31 29 26 24 24 17 14 15 17 8 13 7 9 15 11 9 6 5 6 8 9 7 7 7 7 9 11 9 11 13 14 14 11 12 10 8 10 11 13 15 18 17 17 18 18 18 17 18
35 30 31 31 24 27 8 14 23 19 20 16 10 11 8 13 10 10 8 8 9 11 9 8 9 7 8 9 10 9 11 12 14 13 10 11 11 9 11 12 12 13 14 14 15 15 16 17 18
32 32 31 23 16 18 14 11 11 19 19 13 12 14 14 17 16 15 13 12 11 11 12 10 9 9 7 7 10 11 12 11 11 14 12 11 12 11 9 10 11 11 12 13 13 14 15 16 17
37 38 33 29 26 26 16 14 15 18 13 13 6 7 8 21 17 20 20 15 13 12 13 12 12 11 9 9 9 9 10 10 10 12 13 10 12 12 11 11 11 12 12 10 12 12 14 14 15
46 42 35 31 24 15 18 19 21 10 7 5 9 14 13 8 18 22 16 15 14 15 15 16 16 15 13 10 10 10 9 11 11 9 10 11 10 12 13 12 12 10 10 11 10 10 14 14 12
50 45 37 33 23 13 17 17 17 17 15 14 10 14 17 16 17 21 23 21 21 20 20 18 19 19 18 15 13 12 14 12 11 8 8 9 10 10 11 13 14 13 9 10 12 11 12 13 11
50 45 37 31 24 25 20 20 21 20 16 14 12 8 16 10 18 15 18 23 23 22 21 22 23 22 22 21 17 16 15 14 14 13 10 8 7 9 9 10 11 14 14 9 10 11 12 11 11
43 47 36 33 28 24 24 20 24 26 24 21 20 15 9 14 21 10 9 14 25 27 24 26 25 25 27 27 24 20 16 16 17 16 14 11 10 8 8 8 10 10 12 13 11 10 10 10 10
41 51 45 37 34 24 29 30 27 27 25 25 22 17 13 17 14 18 19 18 25 30 30 30 28 25 25 26 26 25 23 21 20 18 17 14 12 11 11 8 8 9 9 11 11 12 11 10 9
43 46 48 40 36 33 26 34 30 28 26 22 23 21 20 23 20 20 20 13 30 39 32 34 30 28 26 27 26 25 25 23 23 24 21 20 18 16 13 12 9 9 9 8 9 11 12 13 12

GFSSGP_500_spd_105.txt.gz
Wind_Speed
6 5 7 6 10 12 21 12 10 14 9 12 13 18 17 13 13 10 10 12 11 14 14 14 14 13 11 10 9 9 8 10 13 13 13 13 13 13 13 12 13 15 12 13 12 12 14 14 13
5 4 5 7 9 20 23 12 13 12 11 11 16 16 18 14 13 10 12 10 9 13 15 14 13 13 12 11 10 9 9 9 11 12 12 11 11 12 12 11 12 14 14 14 14 13 13 14 13
3 3 5 7 21 8 21 13 11 12 12 14 21 15 16 15 12 11 11 12 10 14 14 14 14 14 14 12 11 10 10 9 11 12 12 11 10 11 11 10 11 11 12 13 14 14 13 14 13
4 5 8 8 6 8 14 12 12 13 10 16 21 17 13 12 12 12 11 11 11 14 14 13 14 15 14 13 13 12 11 11 12 12 12 11 10 9 10 11 10 8 8 12 14 15 13 14 15
9 10 10 10 12 10 9 12 8 11 11 11 19 17 12 9 9 13 12 10 12 15 14 13 14 14 14 13 12 14 13 12 12 12 11 11 10 9 10 13 12 10 15 17 16 15 14 13 15
6 12 9 16 14 9 19 17 15 9 8 10 13 14 11 11 8 10 12 11 9 14 15 13 13 12 12 13 12 13 13 13 12 12 11 11 10 10 9 12 13 14 15 17 14 14 13 14 14
2 6 9 8 11 11 14 21 14 10 9 9 13 13 10 6 6 9 11 11 10 12 13 13 12 12 11 11 11 12 12 13 12 12 11 10 9 9 9 11 11 11 11 13 13 14 14 15 14
6 10 2 8 4 10 20 18 14 7 9 10 11 12 13 5 6 8 10 11 11 13 12 11 12 12 12 11 11 11 11 10 11 11 11 11 10 9 10 9 8 7 9 13 14 15 15 16 15
9 11 7 12 14 17 5 8 19 14 11 8 10 10 12 10 8 9 9 11 11 12 13 11 12 12 13 12 11 10 11 10 10 9 9 11 10 9 8 7 6 5 5 14 16 16 18 19 13
11 15 10 16 18 14 9 12 8 14 11 12 7 9 11 12 10 10 9 11 10 11 13 13 13 12 14 14 13 11 11 11 11 10 9 10 9 8 9 8 9 13 18 19 19 19 19 18 17
13 10 10 10 12 16 16 8 13 12 14 16 14 13 13 11 9 9 11 10 10 10 14 12 12 12 15 14 15 13 12 13 11 10 9 9 9 9 9 9 13 16 21 22 22 20 20 18 20
11 8 7 13 10 13 15 10 8 23 18 16 14 13 15 12 11 11 11 11 11 10 12 13 12 12 14 15 15 14 14 14 11 10 7 9 12 10 9 10 13 17 21 20 20 19 17 18 22
14 11 9 14 15 13 14 14 11 20 15 15 16 15 14 13 8 9 13 13 12 11 13 14 11 10 13 15 15 14 14 16 13 11 10 10 11 10 10 11 13 17 20 21 21 19 18 18 22
14 10 11 9 12 18 12 14 14 9 20 18 20 18 15 17 14 10 12 14 13 12 11 15 13 10 12 14 15 14 14 14 14 12 11 12 12 11 13 21 19 21 22 20 20 18 20 20 20
13 15 17 19 4 7 11 10 17 22 20 18 22 18 16 17 14 10 9 12 13 12 11 15 12 10 11 13 15 13 14 14 13 12 9 10 13 12 15 18 18 21 21 19 19 19 20 21 20
14 14 14 10 11 7 7 3 14 19 22 16 16 16 15 16 17 13 10 10 12 12 10 13 11 10 12 13 15 14 15 12 13 12 10 10 12 15 15 19 22 22 20 20 18 19 20 20 19
14 17 15 14 14 9 3 2 8 23 24 18 17 17 16 15 17 16 13 12 11 12 11 11 10 12 11 15 16 11 11 11 13 13 13 12 13 15 16 17 21 19 19 19 19 21 22 20 18
19 20 21 19 17 13 13 2 9 25 21 16 15 16 13 15 15 18 16 13 12 13 13 12 8 12 12 14 15 11 14 13 11 13 14 14 13 13 15 16 19 19 20 20 20 22 23 21 18
21 23 23 24 18 22 14 9 11 12 16 15 12 13 12 13 13 14 16 14 12 12 13 13 7 10 12 13 16 14 14 14 12 13 14 15 15 15 13 15 16 16 19 19 22 24 21 21 18
24 26 26 23 17 17 17 15 15 20 19 18 17 16 14 14 12 10 14 13 12 12 11 12 9 7 11 12 15 14 15 13 12 12 13 14 13 15 15 13 15 15 15 20 21 22 20 20 18
29 27 25 24 26 21 12 14 16 18 19 18 15 18 18 19 17 13 11 11 12 14 14 13 12 7 8 11 12 13 15 15 13 12 12 10 12 14 15 15 14 15 15 17 17 18 20 19 17
33 28 28 27 27 18 19 11 13 13 22 20 17 14 19 17 17 16 15 14 11 12 15 15 13 9 7 8 11 12 12 15 13 13 12 12 10 11 13 14 14 14 13 15 16 16 16 16 15
31 34 32 31 29 26 27 14 9 11 20 27 21 18 18 21 19 17 16 15 13 11 12 14 13 12 10 8 7 9 11 14 13 13 12 12 9 9 10 10 11 11 13 12 14 16 15 16 15
36 39 38 35 35 31 17 17 14 11 6 16 21 16 17 22 23 21 16 15 13 10 11 13 14 13 13 12 9 9 10 14 13 14 13 11 10 9 9 10 10 9 9 10 10 14 16 16 15
46 43 39 36 38 22 22 19 15 14 4 5 17 15 11 22 23 19 20 16 14 15 15 16 17 16 15 15 14 11 9 11 14 12 13 13 11 10 9 11 13 13 10 9 9 11 14 15 15
44 46 43 42 32 23 23 20 22 17 12 10 9 7 6 10 22 22 16 24 17 17 19 19 20 20 19 19 17 16 14 13 12 12 12 13 13 12 12 11 12 12 12 12 9 10 12 13 15
43 48 43 39 32 27 28 22 26 28 21 14 12 8 7 14 17 25 26 23 24 18 18 20 21 22 24 22 21 20 19 17 15 14 13 13 13 13 12 12 12 12 13 13 14 13 12 13 15
42 44 45 42 38 33 28 25 24 24 24 18 14 11 10 14 14 18 22 26 20 21 20 20 21 23 24 24 23 22 22 22 20 18 16 14 13 13 13 12 12 12 13 14 15 15 15 15 15
39 43 46 43 43 35 35 32 29 29 26 19 18 16 14 12 12 14 8 7 8 20 21 22 24 25 24 25 26 25 23 25 25 24 20 19 17 16 14 13 15 16 15 15 14 15 16 15 15
42 45 49 46 44 40 39 36 28 29 27 25 23 23 19 18 19 13 11 9 10 15 22 33 33 30 29 27 28 28 25 25 26 26 26 25 22 18 19 14 16 15 16 17 16 18 17 16 15

GFSSGP_500_spd_111.txt.gz
Wind_Speed
7 8 8 2 7 1 3 7 7 11 9 10 12 13 13 15 14 13 13 10 11 11 11 10 10 10 12 14 14 14 15 15 14 14 13 14 14 15 15 15 15 13 15 15 14 13 13 12 11
8 8 8 13 6 6 8 6 10 13 12 15 11 14 14 14 12 12 13 11 11 11 11 10 12 13 12 12 14 14 14 14 13 14 13 13 13 13 14 13 13 13 13 15 15 14 12 13 13
7 8 9 14 2 13 16 10 12 11 14 20 16 13 14 13 13 11 13 12 11 11 11 10 12 14 14 14 14 14 13 13 13 12 13 12 13 12 12 13 12 13 12 13 13 14 14 14 13
6 7 6 9 13 17 17 15 16 13 14 17 17 14 14 13 13 11 14 11 11 10 10 11 11 14 15 15 15 15 13 13 12 10 10 11 11 11 11 11 11 11 12 10 16 15 14 13 12
6 8 10 6 10 16 15 15 18 17 16 15 18 15 14 14 14 12 13 11 10 10 10 10 12 13 15 16 16 16 14 14 12 10 10 11 11 10 9 8 11 12 14 14 14 13 13 13 13
5 12 4 4 16 20 18 13 13 18 20 17 16 15 14 13 13 13 12 11 10 9 10 10 11 13 15 15 17 16 14 13 12 11 11 12 12 11 10 11 14 15 15 16 15 14 12 12 11
6 11 12 3 14 19 20 16 14 15 18 17 17 15 14 13 11 12 12 11 11 10 9 9 11 13 14 14 16 16 14 12 12 12 12 12 14 15 15 16 16 15 15 16 15 14 12 11 9
7 9 13 12 13 28 24 20 19 15 16 16 19 18 17 12 12 11 13 11 11 9 9 9 11 13 14 14 14 14 13 12 12 11 11 11 12 15 16 14 13 14 15 15 15 14 12 11 11
6 7 13 16 6 29 20 18 19 19 19 16 15 15 19 14 12 10 13 11 12 10 9 9 10 12 13 13 12 14 13 12 11 11 11 11 8 12 14 12 13 15 16 15 15 15 14 13 14
8 7 12 11 16 16 21 23 20 19 19 18 17 12 13 13 14 10 12 11 11 10 10 11 12 13 12 13 16 16 15 13 12 10 11 12 12 12 11 10 14 17 16 14 14 14 16 16 18
5 5 8 11 9 3 18 23 19 21 19 21 23 16 10 15 15 10 12 11 9 9 10 12 13 13 14 14 16 17 16 15 14 11 12 13 13 12 13 10 21 20 18 15 15 14 17 19 19
4 4 7 13 2 9 17 28 12 17 19 20 20 22 15 12 15 12 10 9 10 11 11 13 13 13 14 15 15 17 17 15 14 13 12 13 14 15 15 17 24 20 17 15 14 15 17 16 16
4 4 4 6 2 1 15 15 20 21 19 20 18 19 17 12 13 13 9 9 10 11 10 12 15 13 13 16 15 17 17 16 15 14 13 12 13 16 20 21 22 20 18 16 16 16 16 16 15
5 3 3 4 10 6 22 8 7 20 20 18 18 18 17 15 14 14 10 9 11 11 10 10 15 15 12 15 16 17 18 18 16 15 14 14 15 18 20 22 21 20 18 16 19 18 17 15 17
7 4 2 11 9 8 11 6 18 19 19 17 18 18 17 15 13 14 12 9 9 11 11 10 13 14 13 15 15 16 16 17 16 17 16 18 17 18 19 22 22 19 17 16 18 17 16 15 17
11 7 3 2 1 6 11 10 17 15 8 22 20 19 17 17 15 14 12 9 9 10 11 11 13 15 14 17 15 14 15 14 14 15 16 19 18 20 21 20 20 19 17 16 17 17 15 14 16
15 12 8 5 6 7 11 9 13 14 18 20 22 21 18 18 15 14 13 10 10 10 12 13 14 13 12 14 15 15 16 17 16 16 15 17 20 20 20 20 18 17 16 17 17 17 15 14 16
19 15 12 9 10 9 8 11 11 21 19 23 23 21 21 20 19 17 16 13 11 10 12 14 14 14 14 12 12 16 16 18 17 15 16 14 17 19 19 17 15 15 16 17 17 16 14 13 14
22 20 16 15 11 14 10 7 15 28 27 24 23 21 21 20 21 19 17 15 13 12 12 13 13 15 15 13 13 14 17 17 16 15 15 15 15 14 15 13 13 13 14 17 17 16 13 11 12
24 23 22 18 14 13 16 17 15 23 29 26 25 24 22 19 21 20 18 17 15 14 14 13 13 14 15 14 12 14 15 16 16 15 15 15 14 13 13 12 11 11 12 16 16 15 12 11 12
25 23 21 19 17 13 9 10 10 37 35 27 26 26 25 22 22 21 20 18 17 15 15 14 14 13 12 12 12 10 14 14 15 15 15 14 14 13 13 11 11 12 14 16 15 14 12 11 11
26 25 23 22 21 15 13 18 17 30 36 31 28 27 26 26 26 25 21 21 19 16 15 16 14 14 13 12 12 11 11 12 13 15 15 14 14 14 13 12 11 12 14 16 16 14 11 9 10
30 27 28 28 24 20 15 21 24 28 31 29 29 28 26 28 26 22 22 21 21 20 16 16 16 15 15 12 11 12 10 11 12 14 15 14 13 14 14 13 12 13 14 13 14 14 12 10 9
35 34 31 30 30 24 21 16 15 11 25 29 31 28 26 24 26 26 25 24 24 22 21 19 17 17 16 15 13 11 12 11 10 13 14 13 12 14 14 13 12 13 12 11 12 13 14 12 10
41 39 36 34 31 24 22 15 14 17 13 6 18 32 29 28 27 24 21 24 25 24 23 22 20 19 18 16 16 15 14 15 14 12 13 12 12 12 12 13 13 12 13 12 12 12 13 14 13
42 41 41 38 30 24 24 19 15 16 11 10 8 32 33 29 25 23 23 25 26 26 24 23 22 20 20 18 17 16 15 16 15 14 14 14 13 12 13 14 14 14 13 13 14 14 14 15 14
42 44 41 39 31 28 28 21 17 11 9 7 5 14 26 22 24 26 24 25 26 25 24 23 23 23 22 21 20 18 16 16 15 14 13 13 12 13 13 13 14 14 14 14 14 14 15 15 15
40 37 42 42 37 35 32 26 23 17 13 13 11 14 19 21 23 25 26 28 25 27 24 25 24 24 24 21 21 21 19 16 16 15 13 13 13 12 12 12 12 12 13 15 15 16 16 17 17
41 42 44 42 38 35 33 29 20 15 17 20 22 18 21 21 21 25 31 33 26 31 29 23 26 25 27 25 23 22 22 20 18 16 15 14 14 13 12 12 12 13 13 14 14 15 16 17 17
38 38 40 43 42 39 33 29 24 19 18 25 22 23 18 19 17 23 22 25 18 29 28 34 31 29 27 28 27 25 24 24 23 21 20 18 16 15 16 15 14 14 14 13 15 16 16 18 19

GFSSGP_500_spd_114.txt.gz
Wind_Speed
7 8 9 9 8 5 5 6 8 10 8 13 11 9 10 14 13 11 11 9 10 9 8 6 9 9 11 12 14 14 14 15 15 15 14 13 13 13 13 13 15 12 13 14 12 15 13 11 12
6 7 6 10 4 5 6 7 11 13 11 13 10 12 10 13 12 10 12 11 11 9 8 7 7 8 10 12 13 14 13 13 13 13 13 14 14 13 13 13 14 12 13 13 13 14 13 12 12
6 5 6 6 7 12 10 8 12 10 14 14 14 13 11 12 12 10 11 13 11 9 8 7 8 8 10 11 11 12 12 12 11 12 10 11 14 12 12 12 12 13 13 14 15 15 14 14 13
6 8 7 6 6 13 14 11 11 11 11 13 11 14 12 12 12 10 12 12 11 9 9 8 8 9 9 11 12 12 12 11 11 10 9 9 11 11 11 10 9 15 13 13 19 16 15 13 12
5 7 8 7 11 10 15 14 13 14 16 15 13 13 13 12 12 10 11 11 10 10 8 9 10 10 11 11 12 12 11 10 10 10 10 10 10 10 10 7 8 15 17 18 16 14 14 13 12
4 6 15 5 20 14 16 14 14 15 17 17 15 15 15 12 12 11 10 10 10 9 8 9 10 12 14 14 13 13 11 9 9 9 9 7 10 10 9 8 11 13 15 15 15 14 11 12 12
3 6 14 15 14 20 16 17 18 17 18 17 16 15 16 13 13 11 11 9 10 9 8 9 11 12 14 15 14 13 13 11 10 9 9 10 10 14 15 15 14 14 13 13 13 12 11 10 10
4 4 9 9 13 24 20 21 21 17 18 18 17 16 19 16 14 12 11 10 9 9 8 9 10 12 13 13 13 13 12 11 10 9 9 10 13 16 16 14 14 14 13 12 11 11 9 9 9
4 3 8 10 6 25 27 22 21 18 18 19 16 14 16 19 14 13 11 10 9 8 8 8 10 11 12 11 12 12 12 11 10 9 9 9 12 14 15 15 14 14 13 12 11 11 11 12 13
4 3 7 7 9 10 29 24 24 21 20 19 16 14 12 19 13 12 11 10 9 9 8 9 9 11 11 11 11 11 11 10 9 10 10 14 16 13 14 16 15 14 13 12 10 12 15 15 18
4 4 4 9 6 8 18 27 27 26 23 25 23 17 11 16 14 13 11 9 8 9 9 10 10 13 15 13 14 13 12 12 11 10 11 12 12 12 13 19 17 15 13 12 12 15 16 18 19
4 5 5 1 2 9 28 26 27 25 22 22 20 23 16 15 14 13 9 9 9 10 9 11 12 13 15 15 14 14 13 12 12 11 11 12 13 12 16 22 18 16 14 13 14 16 16 15 17
6 6 5 9 10 19 26 23 23 24 22 22 20 18 18 15 15 14 11 8 8 10 10 12 14 14 14 15 15 13 13 12 12 12 13 14 14 15 21 21 17 16 14 16 15 15 15 16 17
7 6 4 2 9 21 30 20 22 23 23 23 21 19 17 17 14 14 12 9 8 10 10 10 12 15 15 15 15 15 14 13 13 13 15 16 17 19 21 19 17 15 14 16 16 15 15 16 17
9 5 1 7 16 28 25 15 21 26 24 22 21 19 16 16 13 13 12 10 7 8 11 10 10 12 15 17 17 16 15 15 15 15 17 19 19 19 20 19 16 15 14 16 16 16 17 16 16
10 6 3 4 12 17 19 17 23 24 23 21 21 19 16 16 15 13 12 10 7 6 10 10 11 11 13 16 17 14 13 15 16 17 18 18 19 19 20 19 16 15 16 17 16 16 17 16 16
13 9 6 3 5 7 11 17 26 24 17 21 21 21 17 15 15 14 12 10 8 6 9 12 12 12 12 12 14 13 13 15 16 16 16 20 20 20 19 17 14 13 15 16 16 16 16 15 15
16 13 9 9 9 5 9 10 10 15 19 25 23 21 20 18 17 17 14 10 10 7 10 12 11 10 11 12 13 15 14 15 16 17 17 18 18 19 17 15 12 12 14 14 15 14 14 14 14
19 18 17 10 11 6 8 8 12 14 19 23 24 23 23 20 18 18 16 12 11 9 9 11 12 12 12 11 13 15 14 14 16 17 17 17 17 17 15 14 13 10 14 14 14 13 13 13 12
22 20 20 13 13 16 9 13 2 19 22 25 25 25 24 22 19 19 17 15 13 12 10 10 13 12 11 13 13 16 15 14 15 17 15 15 14 14 13 11 11 11 13 14 14 13 12 13 13
24 21 22 16 16 14 8 10 8 11 20 23 27 29 26 24 22 21 20 19 17 14 12 12 12 13 12 12 13 14 15 15 16 16 16 15 14 12 11 10 10 13 15 15 14 12 12 12 12
26 27 24 21 16 13 10 11 12 11 27 26 27 26 25 26 26 25 23 22 20 17 16 13 14 12 12 12 12 14 14 15 16 15 15 14 14 13 11 10 11 15 17 15 14 12 12 11 12
33 28 27 24 21 17 13 12 12 18 20 33 28 27 27 27 27 26 25 24 23 20 17 15 13 14 14 13 11 12 13 13 15 16 14 13 13 12 11 11 12 15 16 14 13 12 12 10 10
32 30 29 26 22 18 16 14 20 15 29 36 31 29 29 28 28 29 28 26 24 21 21 19 16 14 15 14 13 11 10 12 13 15 14 14 13 12 11 10 11 12 14 12 12 10 9 9 7
38 32 29 28 25 14 20 18 13 19 11 15 33 35 28 29 28 28 29 26 24 24 22 20 18 17 16 15 14 11 11 10 10 11 13 14 13 14 13 12 11 11 12 11 11 11 10 8 7
41 38 32 28 18 18 21 19 14 10 9 9 6 18 33 32 31 28 25 26 27 25 24 22 20 19 17 16 14 13 11 9 10 10 10 11 12 11 12 12 12 11 11 11 11 10 10 10 8
43 42 32 26 25 20 21 22 17 14 11 11 12 12 30 37 33 28 25 25 27 26 25 24 23 20 19 17 15 14 12 11 10 10 9 8 9 10 9 11 12 12 11 11 11 11 11 11 11
41 41 40 35 22 21 23 23 18 15 11 8 13 11 27 38 33 29 27 26 27 27 26 25 24 24 21 20 19 17 14 14 13 12 11 9 8 8 9 9 10 10 11 11 11 12 13 13 13
45 42 43 27 28 21 23 18 24 17 14 11 13 11 19 18 22 25 30 29 29 29 27 27 26 27 26 24 21 20 19 19 16 16 14 12 11 10 11 11 11 11 11 11 11 12 14 14 15
41 39 40 39 30 33 25 23 24 18 16 15 20 21 16 15 20 26 30 33 34 33 30 31 28 29 29 28 25 24 22 22 21 19 18 17 15 14 13 13 12 10 11 12 11 12 13 15 16

GFSSGP_500_spd_117.txt.gz
Wind_Speed
7 8 10 8 6 5 5 6 6 9 9 8 5 4 7 6 8 8 10 8 7 7 8 8 9 8 9 11 13 13 13 12 11 11 10 10 11 13 13 13 12 12 12 12 21 18 16 14 12
7 7 8 5 5 3 4 4 9 10 10 9 6 5 7 7 8 8 9 8 7 7 8 7 8 8 10 11 11 11 11 11 11 10 9 9 9 12 13 15 11 11 12 12 16 14 14 13 11
7 9 7 5 8 8 5 6 9 10 10 9 10 8 7 5 7 8 7 7 7 6 7 7 7 8 9 11 11 10 10 10 9 9 8 9 8 9 10 12 13 10 13 15 15 13 13 12 11
6 10 8 8 9 12 13 6 10 10 9 8 7 9 8 6 6 7 7 7 7 7 7 8 7 6 8 10 10 9 9 9 8 7 8 10 8 8 8 7 9 12 13 18 15 15 14 11 11
3 8 10 2 9 13 15 12 11 11 12 10 9 9 10 7 7 7 8 6 7 7 7 7 7 6 7 9 9 8 8 7 7 6 8 8 8 8 6 6 11 16 18 17 14 13 12 11 11
1 6 12 5 10 12 13 12 13 13 14 12 10 10 10 8 8 8 7 5 6 7 7 7 8 8 9 9 10 9 8 8 7 6 7 10 8 7 7 8 15 18 16 12 11 11 10 9 11
1 4 10 13 16 17 14 14 14 15 14 13 13 11 12 11 8 8 8 5 7 7 8 7 9 9 10 10 10 9 8 8 7 7 8 9 8 8 12 12 14 14 13 11 9 9 9 10 10
2 3 7 7 8 18 16 16 16 19 17 15 14 12 12 13 10 8 8 7 7 7 7 8 8 9 10 10 9 9 8 7 7 7 8 7 11 15 15 13 13 12 11 10 9 10 10 9 10
3 2 4 5 7 21 19 19 18 17 18 18 15 13 12 12 11 7 8 8 7 6 6 7 8 9 9 8 9 9 8 8 6 7 6 7 14 14 13 13 12 11 10 10 11 12 13 12 12
5 3 4 5 8 15 28 22 22 20 19 17 15 12 10 11 12 7 7 7 8 6 6 7 7 8 8 9 8 8 9 7 7 7 5 9 15 15 13 14 13 10 11 12 14 17 18 19 19
6 5 6 6 5 9 32 25 25 24 21 20 19 15 11 12 13 10 7 7 7 7 7 6 8 8 8 10 9 8 9 9 9 9 10 11 10 14 15 15 13 12 13 14 18 20 20 22 24
8 8 9 9 5 14 32 31 28 25 23 20 16 18 16 12 12 11 9 7 7 7 8 8 8 9 8 10 10 9 8 9 10 10 11 11 9 13 16 15 14 14 15 16 18 18 21 22 23
9 8 8 8 14 21 27 31 27 24 21 19 18 15 14 14 12 11 9 9 8 8 9 10 10 11 10 10 9 9 8 9 11 11 12 12 12 18 18 16 14 14 16 17 17 19 21 21 21
11 6 5 8 9 15 30 28 26 24 23 22 20 17 14 14 12 12 10 9 8 7 8 10 10 12 11 10 9 9 9 10 12 13 13 15 18 22 18 16 14 14 17 17 17 20 20 20 21
11 7 5 8 15 26 30 27 28 26 25 24 21 18 14 12 12 10 11 9 9 7 7 9 9 11 12 12 11 10 9 11 12 15 16 19 21 19 17 16 13 13 15 17 17 19 20 20 21
11 8 3 10 14 33 29 25 25 27 26 24 21 19 15 13 11 10 10 9 9 8 5 7 9 10 12 13 11 10 11 12 13 16 17 19 20 18 17 14 13 14 15 16 16 17 19 20 22
12 5 7 7 7 24 22 22 24 29 27 26 23 20 16 15 13 11 11 10 9 8 4 8 10 9 10 11 10 9 10 12 13 14 16 17 17 16 14 13 13 14 15 14 15 16 16 18 22
9 10 11 10 9 12 23 24 27 28 26 25 25 21 19 16 15 13 11 12 9 11 6 6 7 9 9 10 10 10 11 13 13 14 16 16 17 16 14 12 12 15 14 14 14 14 15 16 17
21 11 17 15 12 11 14 23 27 23 26 26 25 23 21 18 16 14 12 12 11 10 10 6 6 8 8 10 11 11 11 14 15 15 14 15 15 14 13 11 11 13 13 13 12 13 15 14 17
23 18 21 14 19 19 18 11 12 20 17 24 26 24 22 19 16 16 14 13 13 11 10 8 7 8 8 8 11 11 10 12 13 14 14 13 13 12 11 9 10 13 11 12 11 12 12 14 15
21 18 22 19 15 14 16 5 7 6 17 27 29 25 24 21 19 18 16 14 14 14 11 9 9 8 8 8 10 11 11 12 13 14 12 11 10 9 9 9 9 11 13 12 10 9 11 11 14
19 24 26 17 24 11 10 4 4 7 8 28 30 26 26 24 22 21 19 16 15 15 14 12 10 9 9 10 10 11 11 11 12 13 14 13 11 9 8 7 9 11 13 11 10 9 9 10 11
27 25 34 16 17 10 9 5 6 9 13 19 26 27 27 27 26 23 21 19 17 16 15 13 13 11 9 9 9 9 11 11 12 12 13 13 11 10 9 9 10 12 14 12 11 9 8 9 10
37 28 23 20 15 16 16 9 13 10 7 17 18 25 27 28 28 27 25 22 19 18 17 16 13 12 11 9 9 9 8 10 10 11 11 11 12 10 9 8 10 11 12 11 11 10 7 7 8
36 30 23 21 15 12 12 6 19 13 10 10 22 27 26 27 30 30 28 25 21 19 18 17 16 13 12 10 9 8 8 7 8 10 10 10 10 10 10 10 10 11 11 10 10 9 8 6 4
36 33 26 15 12 15 21 15 20 11 9 10 6 32 33 29 29 29 29 27 31 22 21 18 16 15 13 11 9 8 8 7 7 8 9 8 9 10 10 10 10 10 10 9 8 8 8 7 6
38 38 31 17 22 18 15 16 25 15 10 8 16 16 17 31 31 30 28 27 29 25 24 22 19 17 15 13 13 11 10 9 8 7 8 9 9 11 11 10 10 10 9 9 9 9 9 9 7
34 32 29 27 19 15 17 18 16 20 13 12 14 13 14 25 36 34 30 28 28 26 25 23 22 21 18 16 16 14 13 12 10 9 7 8 10 9 10 11 11 11 11 10 9 10 10 10 9
42 35 35 26 23 16 22 24 27 21 17 17 16 16 13 14 42 42 32 28 21 26 26 25 23 23 22 21 18 18 16 15 13 12 11 10 10 9 9 9 10 11 11 11 11 11 11 11 11
27 32 27 33 29 24 20 24 20 14 18 19 19 18 21 23 17 42 35 34 36 33 28 24 22 25 25 25 23 21 20 20 19 16 16 14 13 12 11 9 10 10 12 13 12 12 11 12 13

GFSSGP_500_spd_123.txt.gz
Wind_Speed
5 4 4 3 15 13 16 6 3 2 7 10 13 12 13 13 12 12 12 13 13 11 10 10 9 8 7 7 9 9 10 10 11 13 13 13 12 13 15 17 14 13 21 26 20 17 17 15 15
7 9 9 5 19 12 7 2 0 2 5 6 11 9 11 13 11 11 11 11 13 11 10 9 9 7 8 8 9 9 10 10 10 10 12 12 13 12 12 15 18 19 21 24 18 16 16 15 15
8 11 13 12 13 12 6 6 6 8 3 8 9 7 8 10 11 10 10 11 12 12 10 9 8 8 9 8 8 8 9 9 9 9 10 12 12 12 12 13 17 16 19 19 15 16 17 17 16
8 12 8 17 12 6 13 5 3 7 4 3 6 5 7 8 8 9 10 11 10 11 11 9 9 9 8 7 7 7 8 8 8 4 10 11 11 11 9 9 11 16 15 16 15 16 16 17 18
6 9 11 4 18 13 11 8 12 2 1 2 4 5 5 5 7 7 7 9 10 10 10 10 9 8 7 6 6 6 7 8 9 11 11 12 12 11 6 6 7 14 16 15 14 10 15 15 17
3 4 8 5 15 12 10 7 6 4 2 1 2 4 5 5 5 8 8 8 9 9 9 10 11 9 8 7 5 6 7 7 8 8 11 13 14 18 18 16 20 21 13 13 14 13 13 15 16
1 5 11 2 11 14 8 8 11 7 2 1 4 5 5 3 5 9 7 8 8 9 11 10 11 11 10 8 7 8 8 8 8 11 11 11 14 18 22 20 15 12 10 12 12 14 14 14 17
4 4 9 2 12 22 6 5 4 4 4 2 2 5 6 5 6 7 7 10 7 8 10 10 10 11 10 8 8 9 9 8 9 11 13 13 17 17 17 15 15 13 12 10 12 15 15 14 17
5 2 5 4 7 5 6 6 10 6 6 5 2 3 4 4 4 8 7 6 10 9 9 9 9 10 10 7 7 8 9 9 9 10 15 17 17 16 16 15 15 14 15 13 13 16 17 16 16
9 3 3 8 2 2 9 13 10 10 11 6 2 2 2 2 3 7 6 8 7 8 9 9 8 8 7 6 6 7 8 9 8 9 16 16 16 15 15 15 16 16 19 18 18 17 19 19 18
10 3 0 2 7 10 8 17 14 12 13 9 5 3 1 2 1 7 8 9 6 7 11 8 7 5 6 5 5 7 6 9 10 15 20 18 13 14 16 17 17 21 24 21 21 21 22 20 21
12 5 4 3 6 10 11 24 11 15 15 11 7 5 1 1 0 6 7 9 12 12 9 7 7 6 8 7 6 7 6 8 12 12 13 16 16 16 15 17 18 17 21 26 25 24 25 25 25
11 7 8 3 6 8 8 19 17 19 15 12 8 7 3 5 4 4 8 10 10 10 10 7 8 7 9 5 8 6 8 9 10 10 14 19 13 22 18 16 22 21 22 24 23 20 23 28 28
13 13 10 3 4 6 5 21 19 24 15 15 10 9 6 3 3 5 7 9 10 11 10 7 7 9 9 6 6 7 10 13 16 10 13 20 18 15 18 15 19 24 23 24 26 21 22 28 29
17 5 7 6 4 2 15 20 20 14 18 17 15 11 9 7 4 6 8 7 11 8 9 8 8 9 9 8 8 5 12 19 15 13 18 21 21 19 17 15 17 19 20 24 25 24 25 29 29
13 11 3 5 3 4 17 21 27 16 21 18 16 13 11 10 7 5 9 7 9 9 9 8 9 9 10 10 9 8 9 14 17 20 19 15 20 19 22 20 19 17 18 17 21 23 24 29 32
16 11 10 10 10 9 11 27 26 27 22 21 19 16 13 11 9 6 7 9 9 10 11 10 8 9 10 11 11 9 11 14 18 21 16 15 12 18 19 20 21 20 16 18 18 19 21 23 27
11 7 10 12 11 16 18 30 31 27 27 23 21 18 15 11 11 8 7 9 10 12 10 11 9 9 9 10 12 9 11 13 16 20 17 17 8 12 16 17 16 16 15 13 19 19 19 23 25
13 9 14 23 13 8 12 34 26 30 28 26 23 19 16 13 12 10 8 8 10 11 10 10 11 10 7 10 12 11 11 14 13 17 17 14 14 11 13 14 12 14 14 14 18 20 19 18 20
21 12 15 15 8 12 12 34 27 29 30 28 27 23 19 16 13 11 11 9 10 10 11 10 12 11 6 7 11 12 9 12 13 15 18 15 13 13 14 13 11 9 11 11 15 17 18 17 16
27 19 9 18 25 9 11 30 24 32 33 29 29 26 24 18 16 13 12 11 10 10 10 10 12 12 6 10 11 12 11 10 12 12 12 12 11 10 12 10 10 11 7 9 11 16 17 17 15
27 20 23 14 17 17 7 17 32 35 29 27 29 26 26 20 18 18 16 12 9 9 10 10 11 11 7 9 12 9 11 8 9 11 11 10 8 9 11 10 10 9 9 7 7 11 11 12 12
30 21 9 22 17 21 16 7 17 23 24 25 29 27 28 23 21 20 17 16 14 11 10 11 10 9 7 10 9 8 9 9 8 9 9 8 6 5 7 10 10 10 10 8 7 8 9 9 11
34 15 8 20 12 13 16 6 7 16 9 11 22 29 33 31 25 22 18 20 17 13 10 10 11 9 9 7 9 7 8 7 8 8 7 7 6 5 5 11 11 10 9 9 7 7 6 8 9
34 18 9 8 11 12 21 8 7 7 10 3 3 17 23 27 24 19 20 16 16 15 14 10 10 8 8 9 8 9 8 6 8 8 7 8 6 5 5 8 13 11 9 8 8 8 7 6 6
34 15 20 16 8 6 7 3 7 12 16 4 5 13 33 28 26 21 17 19 16 17 15 14 12 11 9 7 8 7 8 8 7 7 7 8 9 7 7 8 10 10 8 7 7 6 5 7 7
34 34 15 14 22 12 9 10 20 9 9 7 5 8 18 27 26 24 26 27 19 18 18 15 14 14 12 12 10 9 8 8 9 8 9 8 8 9 9 9 9 9 9 8 6 6 6 4 4
33 29 27 26 20 10 8 12 18 13 16 15 11 12 16 21 25 26 28 27 22 21 19 19 16 14 14 13 12 11 10 10 10 10 8 8 7 10 11 10 10 11 10 9 8 7 8 8 7
35 33 34 28 26 15 26 19 20 12 18 21 24 22 17 22 22 25 22 27 24 23 18 19 19 18 18 18 17 14 12 11 11 10 10 11 10 9 10 10 11 11 11 10 9 10 11 10 9
22 35 33 27 27 26 25 22 21 19 19 29 21 17 20 20 14 14 21 24 26 20 21 23 23 21 22 22 19 18 18 16 15 14 14 13 12 12 10 10 12 12 12 12 12 11 11 11 11